EHI
0 0 0 0 0 0 0 0 0 0 0 0 0 0 0 0 0 0 0 0 0 0 0 0 0 0 0 0 0 0 0 0 0 0 0 0 1 2 2 3 3 2 2
0 0 0 0 0 0 0 0 0 0 0 0 0 0 0 0 0 0 0 0 0 0 0 0 0 0 0 0 0 0 0 0 0 0 0 0 0 1 1 2 2 1 1
0 0 0 0 0 0 0 0 0 0 0 0 0 0 0 0 0 0 0 0 0 0 0 0 0 0 0 0 0 0 0 0 0 0 0 0 0 0 0 1 1 0 0
0 0 0 0 0 0 0 0 0 0 0 0 0 0 0 0 0 0 0 0 0 0 0 0 0 0 0 0 0 0 0 0 0 0 0 0 0 0 0 0 0 0 0
0 0 0 0 0 0 0 0 0 0 0 0 0 0 0 0 0 0 0 0 0 0 0 0 0 0 0 0 0 0 0 0 0 0 0 0 0 0 0 0 0 0 0
0 0 0 0 0 0 0 0 0 0 0 0 0 0 0 0 0 0 0 0 0 0 0 0 0 0 0 0 0 0 0 0 0 0 0 0 0 0 0 0 0 0 0
0 0 0 0 0 0 0 0 0 0 0 0 0 0 0 0 0 0 0 0 0 0 0 0 0 0 0 0 0 0 0 0 0 0 0 0 0 0 0 0 0 0 0
0 0 0 0 0 0 0 0 0 0 0 0 0 0 0 0 0 0 0 0 0 0 0 0 0 0 0 0 0 0 0 0 0 0 0 0 0 0 0 0 0 0 0
0 0 0 0 0 0 0 0 0 0 0 0 0 0 0 0 0 0 0 0 0 0 0 0 0 0 0 0 0 0 0 0 0 0 0 0 0 0 0 0 0 0 0
0 0 0 0 0 0 0 0 0 0 0 0 0 0 0 0 0 0 0 0 0 0 0 0 0 0 0 0 0 0 0 0 0 0 0 0 0 0 0 0 0 0 1
0 0 0 0 0 0 0 0 0 0 0 0 0 0 0 0 0 0 0 0 0 0 0 0 0 0 0 0 0 0 0 0 0 0 0 0 0 0 0 0 0 0 1
0 0 0 0 0 0 0 0 0 0 0 0 0 0 0 0 0 0 0 0 0 0 0 0 0 0 0 0 0 0 0 0 0 0 0 0 0 0 0 0 0 0 1
0 0 0 0 0 0 0 0 0 0 0 0 0 0 0 0 0 0 0 0 0 0 0 0 0 0 0 0 0 0 0 0 0 0 0 0 0 0 0 0 0 0 0
0 0 0 0 0 0 0 0 0 0 0 0 0 0 0 0 0 0 0 0 0 0 0 0 0 0 0 0 0 0 0 0 0 0 0 0 0 0 0 0 0 0 0
0 0 0 0 0 0 0 0 0 0 0 0 0 0 0 0 0 0 0 0 0 0 0 0 0 0 0 0 0 0 0 0 0 0 0 0 0 0 0 0 0 0 0
0 0 0 0 0 0 0 0 0 0 0 0 0 0 0 0 0 0 0 0 0 0 0 0 0 0 0 0 0 0 0 0 0 0 0 0 0 0 0 0 0 0 0
0 0 0 0 0 0 0 0 0 0 0 0 0 0 0 0 0 0 0 0 0 0 0 0 0 0 0 0 0 0 0 0 0 0 0 0 0 0 0 0 0 0 0
0 0 0 0 0 0 0 0 0 0 0 0 0 0 0 0 0 0 0 0 0 0 0 0 0 0 0 0 0 0 0 0 0 0 0 0 0 0 0 0 0 0 0
0 0 0 0 0 0 0 0 0 0 0 0 0 0 0 0 0 0 0 0 0 0 0 0 0 0 0 0 0 0 0 0 0 0 0 0 0 0 0 0 0 0 0
0 0 0 0 0 0 0 0 0 0 0 0 0 0 0 0 0 0 0 0 0 0 0 0 0 0 0 0 0 0 0 0 0 0 0 0 0 0 0 0 0 0 0
0 0 0 0 0 0 0 0 0 0 0 0 0 0 0 0 0 0 0 0 0 0 0 0 0 0 0 0 0 0 0 0 0 0 0 0 0 0 0 0 0 0 0
0 0 0 0 0 0 0 0 0 0 0 0 0 0 0 0 0 0 0 0 0 0 0 0 0 0 0 0 0 0 0 0 0 0 0 0 0 0 0 0 0 0 0
0 0 0 0 0 0 0 0 0 0 0 0 0 0 0 0 0 0 0 0 0 0 0 0 0 0 0 0 0 0 0 0 0 0 0 0 0 0 0 0 0 0 0
0 0 0 0 0 0 0 0 0 0 0 0 0 0 0 0 0 0 0 0 0 0 0 0 0 0 0 0 0 0 0 0 0 0 0 0 0 0 0 0 0 0 0
0 0 0 0 0 0 0 0 0 0 0 0 0 0 0 0 0 0 0 0 0 0 0 0 0 0 0 0 0 0 0 0 0 0 0 0 0 0 0 0 0 0 0
0 0 0 0 0 0 0 0 0 0 0 0 0 0 0 0 0 0 0 0 0 0 0 0 0 0 0 0 0 0 0 0 0 0 0 0 0 0 0 0 0 0 0
Wind_Speed
3 3 3 3 3 3 3 3 4 4 4 4 5 5 5 4 4 4 3 8 8 8 8 8 8 9 8 8 7 8 8 7 8 8 7 7 7 7 7 7 7 7 7
3 3 3 3 3 3 3 3 4 4 4 4 5 5 4 4 4 5 4 5 9 8 8 8 8 8 8 8 7 7 7 7 7 7 7 7 7 7 7 7 7 7 7
3 3 3 3 3 3 4 4 4 4 4 4 5 4 4 4 4 5 4 4 5 8 9 8 7 7 7 7 7 6 6 6 6 6 6 6 7 7 7 7 7 7 6
3 3 3 2 2 3 3 3 3 4 4 3 3 4 4 4 5 4 4 4 3 4 6 8 6 6 6 6 6 6 6 5 6 6 6 6 6 6 6 6 6 6 6
3 3 2 2 2 3 3 3 3 3 3 3 3 3 4 3 3 4 4 3 3 3 3 6 7 7 5 5 5 5 5 5 5 5 5 6 6 5 5 5 5 5 6
3 3 2 2 2 3 3 3 3 3 2 2 3 4 3 3 3 3 3 3 3 3 3 3 4 5 6 5 5 4 4 3 3 4 4 5 5 4 4 5 5 5 5
2 2 2 2 2 2 2 2 2 3 2 2 3 3 3 3 3 3 2 2 3 3 3 3 2 2 3 6 5 4 3 2 2 3 4 4 4 4 4 4 4 5 5
2 2 2 2 2 2 2 2 2 2 1 1 2 2 2 3 3 3 2 2 3 3 3 3 3 3 3 2 4 5 4 2 1 2 3 3 3 4 4 4 4 4 4
2 2 2 2 1 2 1 1 2 2 1 0 1 2 2 1 2 2 2 2 2 2 2 2 3 3 3 2 3 4 5 3 1 2 2 3 3 3 3 3 4 3 4
2 2 2 2 1 1 1 1 1 1 2 1 0 1 1 2 2 1 2 2 2 2 2 2 2 2 3 2 3 4 5 4 2 1 2 2 3 3 3 3 3 3 4
1 1 1 1 1 1 1 1 1 1 1 1 1 1 1 1 1 2 1 2 2 2 1 1 1 2 2 2 2 3 5 5 4 2 1 2 2 3 3 3 3 4 4
1 1 1 0 1 1 1 1 1 1 1 1 1 1 2 2 1 2 1 1 1 2 2 1 1 1 1 2 3 4 4 5 4 4 3 2 1 2 3 3 3 4 4
0 1 0 0 0 1 1 1 1 1 1 1 1 1 1 1 2 2 2 1 1 1 1 1 1 1 1 1 2 4 4 4 4 4 4 4 2 2 2 3 3 4 3
2 2 1 1 1 1 1 1 1 1 1 1 1 1 1 1 1 2 2 2 0 1 1 2 1 1 1 1 2 3 3 4 4 3 4 3 3 2 2 2 2 3 3
2 1 1 1 1 1 1 1 0 1 1 0 0 1 1 1 1 1 2 2 3 1 2 2 1 1 1 0 1 1 2 3 3 3 3 2 2 2 2 2 2 2 2
1 1 1 1 1 1 1 1 1 0 1 0 1 1 1 1 0 1 1 1 1 2 2 2 2 1 1 0 1 1 1 3 3 3 3 2 2 1 2 2 2 2 2
2 2 2 2 2 2 1 2 1 1 1 0 0 0 1 1 1 1 1 1 1 1 1 1 1 1 0 0 1 1 1 1 2 3 2 2 1 1 1 2 2 2 2
2 2 2 2 2 2 2 2 2 2 2 1 1 1 1 1 1 1 1 2 2 2 2 2 1 1 1 0 0 1 1 1 1 2 2 2 1 1 1 1 2 2 2
2 2 2 2 2 2 2 3 3 3 2 2 2 1 1 1 1 1 1 1 1 1 1 2 1 0 1 0 1 1 1 2 1 2 2 2 1 0 1 1 1 2 2
2 2 2 2 2 2 2 2 2 2 2 2 1 2 2 2 2 2 2 2 2 2 1 1 1 0 0 0 1 0 1 2 2 2 2 2 2 2 1 1 1 2 2
1 1 1 1 1 2 2 3 3 2 2 1 1 2 2 2 2 2 2 2 3 2 2 1 1 0 0 1 1 1 1 1 1 1 2 2 2 1 2 2 1 1 2
1 0 1 1 1 1 1 3 3 2 2 2 2 2 2 2 2 2 2 3 4 3 3 2 1 2 2 2 1 1 1 0 1 1 0 2 1 1 1 1 1 1 1
1 0 1 0 1 2 2 2 3 2 2 2 2 2 1 1 1 1 2 2 2 2 3 4 3 3 3 3 3 2 2 2 2 1 0 1 1 1 2 1 1 0 1
1 1 1 1 1 2 1 1 2 2 1 1 2 2 2 1 1 1 2 2 1 1 2 2 3 3 3 3 3 3 3 2 0 0 1 1 1 2 2 1 1 0 0
1 1 1 2 2 2 1 1 1 1 1 1 1 1 1 1 1 2 3 2 1 1 1 1 0 0 1 3 3 2 2 1 1 1 0 1 1 1 1 1 1 1 1
2 1 1 1 2 2 2 1 1 1 1 1 1 1 1 1 1 1 3 3 2 2 0 0 1 2 1 2 4 3 3 2 1 1 1 1 1 0 1 1 1 1 1
Wind_Direction
59 53 50 49 46 48 54 55 59 61 63 58 61 64 58 53 49 44 37 54 67 78 83 82 87 86 82 80 76 76 76 77 78 76 75 77 77 76 74 72 69 71 76
69 67 59 53 47 47 53 63 62 64 66 64 59 57 55 49 49 49 41 39 48 63 71 74 77 84 82 78 78 76 76 78 76 76 75 76 76 76 77 71 68 69 70
76 76 67 56 50 53 59 62 58 56 61 60 53 50 53 50 49 47 42 39 34 42 51 61 67 77 77 74 73 75 83 83 79 77 78 78 78 78 79 75 71 69 70
84 83 79 61 54 60 62 66 61 60 55 53 48 40 42 43 42 42 43 41 35 31 35 44 52 62 71 72 69 70 76 84 81 78 78 80 81 81 82 81 78 72 68
80 82 79 67 67 68 61 73 61 67 66 57 55 45 36 35 32 40 41 39 36 38 33 29 29 31 46 58 60 65 71 80 84 84 84 83 83 83 82 79 80 75 69
79 83 80 73 79 77 62 64 70 59 62 57 60 49 32 28 34 33 28 27 28 36 37 34 20 9 24 36 46 52 58 71 86 94 94 93 91 89 86 84 83 80 71
76 82 76 72 83 96 104 97 85 71 55 50 58 33 17 24 35 27 22 27 23 26 32 28 19 10 5 16 23 32 35 58 87 107 110 106 97 98 98 90 86 85 77
73 90 85 81 87 96 95 101 102 93 68 67 89 74 20 1 4 14 15 26 17 20 26 20 19 14 4 2 2 13 14 21 97 123 125 120 114 105 106 101 93 88 78
73 83 94 96 91 106 135 142 134 130 138 72 96 121 122 226 324 343 3 14 10 17 10 11 17 8 4 360 348 357 4 11 59 147 140 131 133 126 121 108 104 97 86
63 77 96 98 106 104 116 167 141 140 135 143 69 79 145 161 153 333 334 350 360 7 4 10 8 2 2 358 356 6 14 22 31 155 160 153 150 142 135 121 118 107 97
35 54 93 103 111 129 150 113 103 126 136 151 158 135 100 80 121 150 280 328 345 342 347 349 356 355 359 355 349 10 24 29 35 52 120 155 154 151 154 141 141 126 111
0 15 57 119 148 134 150 148 131 132 152 149 153 152 155 158 174 160 185 266 302 310 326 332 340 346 351 355 353 18 31 38 44 49 55 71 120 139 150 145 142 133 122
273 271 212 212 201 190 165 138 131 138 159 156 175 195 190 193 163 156 150 186 268 304 322 326 308 326 351 12 354 10 22 36 45 51 50 49 64 114 136 148 146 145 133
222 229 212 216 230 193 175 146 134 182 142 174 195 187 190 216 174 167 162 153 152 314 320 292 310 301 340 5 348 8 12 29 35 46 48 48 57 79 96 112 133 133 122
213 200 204 220 228 201 179 150 150 215 156 177 221 204 219 244 190 187 170 164 159 197 266 263 280 305 319 341 352 18 7 12 19 26 36 37 49 77 83 91 102 100 96
207 178 193 214 218 208 172 150 173 208 154 208 203 190 234 247 195 179 176 173 170 171 223 255 250 279 286 346 24 27 349 3 11 17 23 30 48 87 103 110 110 109 117
189 199 205 202 206 209 191 171 193 177 178 243 293 237 255 216 172 174 157 149 152 146 189 275 284 304 345 345 7 9 351 352 344 3 10 22 48 87 104 128 142 141 137
195 206 202 195 208 210 197 187 195 184 194 226 251 241 286 232 185 190 170 175 181 175 166 202 272 302 272 241 340 6 357 1 339 357 6 10 43 92 104 123 145 155 149
207 204 184 197 218 217 205 202 191 188 198 222 237 225 249 219 224 226 188 185 190 170 145 162 209 300 320 348 40 6 2 351 337 343 340 342 349 2 148 160 161 162 162
193 208 199 204 214 213 204 199 184 185 196 223 242 237 235 221 223 214 197 195 173 147 132 131 160 202 314 338 97 28 348 349 342 347 346 344 348 355 324 241 195 182 181
192 217 196 193 192 202 199 184 183 183 189 221 257 260 247 242 232 204 191 182 165 158 150 145 178 180 225 187 206 207 244 320 332 346 341 344 352 360 345 331 306 208 191
197 200 218 193 208 236 213 187 177 181 188 205 243 270 269 269 266 211 180 160 158 166 175 169 189 207 226 218 192 193 177 173 283 310 332 318 359 333 311 304 334 344 216
170 164 250 216 242 251 242 211 185 168 181 215 233 254 282 294 278 205 181 150 162 167 172 175 186 211 211 209 183 192 197 193 222 258 223 279 310 293 293 314 315 15 12
177 202 239 229 243 261 253 238 184 160 169 221 237 233 229 260 220 162 157 146 162 219 213 188 194 209 200 189 189 197 193 163 67 327 144 240 271 269 296 298 312 348 15
186 213 231 225 234 270 263 266 145 157 170 236 253 250 225 236 253 146 143 154 173 276 281 155 155 239 158 151 144 114 125 145 234 256 205 198 257 276 286 291 300 305 330
190 194 242 241 230 254 272 252 150 159 175 238 281 292 254 252 286 148 165 167 189 235 238 14 23 14 45 155 155 164 176 178 197 230 208 185 220 245 291 293 312 324 318